Regional Weather Roundup
Issued by NWS

Home | Current Version | Previous Version | Text Only | Print | Product List | Glossary Off
Versions: 1 2 3 4 5 6 7 8 9 10 11 12 13 14 15 16 17 18 19 20 21 22 23 24 25 26 27 28 29 30 31 32 33 34 35 36 37 38 39 40 41 42 43 44 45 46 47 48 49 50

000
ASUS43 KLOT 300209
RWRIL

ILLINOIS REGIONAL WEATHER ROUNDUP
NATIONAL WEATHER SERVICE CHICAGO/ROMEOVILLE IL
900 PM CDT MON MAY 29 2017

NOTE: "FAIR" INDICATES FEW OR NO CLOUDS BELOW 12,000 FEET WITH NO
SIGNIFICANT WEATHER AND/OR OBSTRUCTIONS TO VISIBILITY.

* THESE STATIONS ARE NOT UNDER NWS QUALITY CONTROL. THEY ALSO MAY NOT
  REPORT WEATHER SUCH AS PRECIPITATION OR FOG.

ILZ001-002-007-009-015-016-024-300300-
NORTHWEST ILLINOIS

CITY           SKY/WX    TMP DP  RH WIND       PRES   REMARKS
MOLINE         PTCLDY    67  43  41 W8        29.90R
STERLING*      MOCLDY    66  46  48 W8        29.89R
SAVANNA*       CLEAR     67  46  47 W7        29.88R
$$

ILZ003-004-008-010-011-017-018-300300-
NORTH CENTRAL ILLINOIS

CITY           SKY/WX    TMP DP  RH WIND       PRES   REMARKS
ROCKFORD       PTCLDY    65  46  50 W3        29.88R
FREEPORT*      MOCLDY    63  45  52 W6        29.89S
ROCHELLE*      MOCLDY    64  47  54 W7        29.89R
DE KALB*       PTCLDY    64  46  50 W7        29.89R
PERU*          CLEAR     64  45  49 W8        29.90R
$$

ILZ005-006-012>014-019>023-300300-
NORTHEAST ILLINOIS

CITY           SKY/WX    TMP DP  RH WIND       PRES   REMARKS
CHICAGO-OHARE  PTCLDY    66  45  46 W6        29.86R
CHICAGO-MIDWAY PTCLDY    69  45  41 W7        29.87R
AURORA         CLEAR     62  47  57 W8        29.88R
LANSING*       CLEAR     66  46  48 W5        29.88R
JOLIET*        PTCLDY    68  47  45 CALM      29.89R
WAUKEGAN       PTCLDY    65  45  48 CALM      29.86R
DUPAGE AIRPORT CLEAR     65  47  52 W5        29.87R
KANKAKEE*      CLEAR     67  42  40 CALM      29.90R
WHEELING       CLEAR     67  46  47 W5        29.87S
MORRIS*        CLEAR     66  45  46 CALM      29.88R
ROMEOVILLE*    PTCLDY    65  49  56 W6        29.88S
NORTHERLY ISL    N/A     70  40  33 SW9         N/A
$$

LMZ740>746-300300-
SOUTHERN LAKE MICHIGAN

STATION/POSITION SKY/WX   TEMP    WIND        PRES    VSBY  WAVE
                          AIR SEA DIR/SP/G                  HT/PER
                          (F)     (DEG/KT/KT) (MB)    (MI)  (FT/S)
SOUTHERN BUOY              54 48  260/  8/  8 1010.5          2/ 4
WILMETTE HARBOR            62 54  250/  6/  6   N/A           1/ 2
HARRISON CRIB              71     270/ 15/ 16   N/A
BURNHAM HARBOR             70     230/  9/ 10   N/A
CALUMET HARBOR             71     250/  3/  7 1011.0R
BURNS HARBOR               63     260/  4/  9 1012.2R
MICHIGAN CITY              62     240/  8/  8   N/A
MICHIGAN CITY 6N           58 56  300/  6/  8   N/A           2/ 4
ST. JOSEPH                 59 60  180/  4/  6 1011.7          2/ 4
$$

ILZ025>027-034>036-040-047-049-050-058-095>099-300300-
WEST-CENTRAL ILLINOIS

CITY           SKY/WX    TMP DP  RH WIND       PRES   REMARKS
QUINCY         PTCLDY    68  44  42 NW8       29.95R
GALESBURG*     PTCLDY    66  41  40 SW6       29.92R
MACOMB*        CLEAR     65  44  45 W7        29.96R
JACKSONVILLE*  CLEAR     67  47  48 W6        29.94R
PITTSFIELD*    CLEAR     70  47  43 CALM      29.96R
$$

ILZ028>032-037-038-041>044-048-051>054-059>061-300300-
CENTRAL ILLINOIS

CITY           SKY/WX    TMP DP  RH WIND       PRES   REMARKS
PONTIAC        CLEAR     68  44  42 W8        29.91R
BLOOMINGTON    CLEAR     67  42  40 W6        29.93R
DECATUR        CLEAR     71  45  39 W6G17     29.93R
PEORIA         CLEAR     67  44  43 CALM      29.92R
LACON*         CLEAR     68  44  41 CALM      29.90R
LINCOLN*       PTCLDY    71  42  34 CALM      29.93R
SPRINGFIELD    CLEAR     70  46  42 W5        29.93R
TAYLORVILLE    CLEAR     69  49  47 NW5       29.94R
$$

ILZ033-039-045-046-055>057-062-063-300300-
EAST-CENTRAL ILLINOIS

CITY           SKY/WX    TMP DP  RH WIND       PRES   REMARKS
CHAMPAIGN      PTCLDY    68  46  45 W6        29.92R
RANTOUL*       CLEAR     71  46  40 NW10      29.91R
MATTOON        PTCLDY    68  54  60 SW6       29.92R
PARIS*         CLOUDY    63  58  81 NW3       29.92F
$$

ILZ079-100>102-300300-
SOUTHWEST ILLINOIS

CITY           SKY/WX    TMP DP  RH WIND       PRES   REMARKS
ALTON          CLEAR     66  61  82 CALM      29.95R
BELLEVILLE     CLEAR     65  62  90 CALM      29.96R
CAHOKIA*       CLEAR     68  65  90 S5        29.95R
SPARTA*        PTCLDY    71  57  61 CALM      29.97R
$$

ILZ064>066-069>071-074>076-080>082-084>086-088>090-092>094-300300-
SOUTH-CENTRAL ILLINOIS

CITY           SKY/WX    TMP DP  RH WIND       PRES   REMARKS
CARBONDALE     PTCLDY    70  59  68 NE3       29.96R
CAIRO*         PTCLDY    76  59  54 S8        29.95R
EFFINGHAM*     CLEAR     62  62 100 CALM      29.95R
MARION         CLOUDY    66  64  94 CALM      29.97R
MT. VERNON       N/A     61  60  97 CALM      29.94S
CENTRALIA*     CLEAR     67  59  74 CALM      29.94R
SALEM*         CLEAR     67  58  72 SW6       29.94R
METROPOLIS*    PTCLDY    74  59  59 S5        29.96R
$$

ILZ067-068-072-073-078-083-087-091-300300-
SOUTHEAST ILLINOIS

CITY           SKY/WX    TMP DP  RH WIND       PRES   REMARKS
LAWRENCEVILLE  LGT RAIN  72  51  47 NW9       29.93R
FLORA*         MOCLDY    64  59  83 S3        29.94R
FAIRFIELD*     CLOUDY    66  58  75 CALM      29.92F
HARRISBURG*    CLOUDY    65  61  87 N3        29.96R THUNDER
ROBINSON*      CLOUDY    70  50  48 W8        29.94R
CARMI*         CLOUDY    71  55  58 NW5       29.94R
$$

ABBREVIATIONS USED IN REMARKS
   TC - TEMPERATURE IN CELSIUS
  WCI - WIND CHILL INDEX
   HX - HEAT INDEX
  VSB - VISIBILITY
$$




USA.gov is the U.S. government's official web portal to all federal, state and local government web resources and services.